Regional Weather Roundup
Issued by NWS

Home | Current Version | Previous Version | Text Only | Print | Product List | Glossary On
Versions: 1 2 3 4 5 6 7 8 9 10 11 12 13 14 15 16 17 18 19 20 21 22 23 24 25 26 27 28 29 30 31 32 33 34 35 36 37 38 39 40 41 42 43 44 45 46 47 48 49 50
000
ASUS46 KLOX 291612
RWRCA

SOUTHERN CALIFORNIA WEATHER ROUNDUP
NATIONAL WEATHER SERVICE OXNARD CALIFORNIA
900 AM PDT SUN MAR 29 2015

NOTE: "FAIR" INDICATES FEW OR NO CLOUDS BELOW 12,000 FEET WITH NO
SIGNIFICANT WEATHER AND/OR OBSTRUCTIONS TO VISIBILITY.

  -  STATIONS PRECEEDED BY AN ASTERISK (*) ARE NOT NWS OR FAA
     STATIONS AND ARE NOT SUBJECT TO NWS AND FAA QUALITY CONTROL.

CAZ041-042-087-291700-
LA AND ORANGE COUNTY COASTAL AREAS


CITY           SKY/WX    TMP DP  RH WIND       PRES   REMARKS
L.A. DOWNTOWN  MOSUNNY   63  57  81 SE5       30.04F HAZE
L.A. AIRPORT   CLOUDY    58  58 100 E9        30.05F FOG
LONG BEACH     MOSUNNY   63  57  81 CALM      30.05S

CITY           SKY/WX    TMP DP  RH WIND       PRES   REMARKS
AVALON           N/A     61 N/A N/A MISG        N/A
FULLERTON      MOSUNNY   65  55  70 CALM      30.04F
*GETTY CENTER    N/A    N/A N/A N/A NE6         N/A
HAWTHORNE      PTSUNNY   62  57  83 SE6       30.05F
*LEO CARRILLO    N/A     65  56  74 CALM        N/A
*REDONDO BEACH   N/A     59  57  93 CALM      30.05F
SANTA ANA      PTSUNNY   63  55  75 CALM      30.05F
STA MONICA APT MOSUNNY   62  57  83 E7        30.05S HAZE
TORRANCE       CLOUDY    63  61  94 MISG      30.06F FOG
*UCLA            N/A     63  55  77 E3        30.02S

$$

CAZ547-548-048-291700-
LA COUNTY VALLEYS AND INLAND EMPIRE


CITY           SKY/WX    TMP DP  RH WIND       PRES   REMARKS
BURBANK        SUNNY     63  49  60 CALM      30.05S
VAN NUYS       SUNNY     62  44  51 CALM      30.05F

CITY           SKY/WX    TMP DP  RH WIND       PRES   REMARKS
CORONA AIRPORT SUNNY     65  41  41 CALM      30.08S
*CHATSWORTH      N/A     66  42  40 CALM      30.04F
CHINO          MOSUNNY   63  52  67 CALM      30.08S
*CLAREMONT       N/A     73  38  27 CALM        N/A
MARCH AFB      SUNNY     63  37  37 CALM      30.08S
*NORTHRIDGE      N/A     64  39  39 CALM        N/A
ONTARIO        PTSUNNY   63  46  54 CALM      30.07S
*PASADENA        N/A     66  52  59 E5          N/A
POMONA         SUNNY     63  45  51 SE12      30.10S
RIVERSIDE      PTSUNNY   64  42  44 CALM      30.07F
SAN BERNARDINO PTSUNNY   64  30  27 CALM      30.08S
*SAN GABRIEL     N/A     63  58  83 CALM      30.02
*SAN RAFAEL HI   N/A     76  27  16 W2          N/A
*SAUGUS          N/A     53  25  34 SE2         N/A
*WHITEMAN AP   SUNNY     64  34  32 CALM      30.08F
*WHITTIER HILL   N/A     67  57  71 CALM        N/A
*WOODLAND HILL   N/A     63  41  45 N1          N/A

$$

CAZ054-055-291700-
LA AND SAN BERNARDINO COUNTY MOUNTAINS


CITY           SKY/WX    TMP DP  RH WIND       PRES   REMARKS
*ACTON           N/A     50  19  29 N7          N/A
*BIG BEAR AIRP SUNNY     46  18  31 CALM      30.31S
*BIG PINES       N/A     60  11  14 CALM        N/A
MT WILSON NWS    N/A     70  23  17 NE1         N/A
SANDBERG       MOSUNNY   64  38  38 N9        30.19S

$$

CAZ028-029-059-060-099-291700-
ANTELOPE VALLEY AND SURROUNDING AREAS


CITY           SKY/WX    TMP DP  RH WIND       PRES   REMARKS
LANCASTER      SUNNY     61  30  31 CALM      30.13S
PALMDALE       SUNNY     63  25  23 CALM      30.13R
*POPPY PARK      N/A     73  26  17 E2          N/A

CITY           SKY/WX    TMP DP  RH WIND       PRES   REMARKS
29 PALMS       SUNNY     70  24  17 NW8       30.16S
BARSTOW/DAGGET SUNNY     65  32  29 W15       30.11R
BISHOP         MOSUNNY   56  21  25 W8        30.22S
CHINA LAKE     SUNNY     65  31  28 CALM      30.11S
MOJAVE         FAIR      64  36  34 CALM      30.14R
NEEDLES        CLOUDY    70  25  18 CALM      30.03R
VICTORVILLE    SUNNY     63  27  25 SE6       30.14F

$$

CAZ039-040-291700-
VENTURA AND SANTA BARBARA COUNTY COAST


CITY           SKY/WX    TMP DP  RH WIND       PRES   REMARKS
CAMARILLO      CLOUDY    57  54  89 SW5       30.05S FOG
NWS OXNARD       N/A     57  54  91 CALM      30.05S
OXNARD AIRPORT PTSUNNY   58  55  90 SE3       30.05S FOG
*POINT MUGU    PTSUNNY   58  51  78 SE9       30.06S HAZE
SBA APT/GOLETA FOG       57  56  96 CALM      30.05R VSB 1/2
*SANTA BARBARA   N/A     59  55  87 W1        30.13S
*VENTURA         N/A     58  46  66 E3        30.08S

$$

CAZ044-045-291700-
VENTURA COUNTY VALLEYS


CITY           SKY/WX    TMP DP  RH WIND       PRES   REMARKS
*SIMI VALLEY     N/A     68  45  42 CALM      30.00F
*OJAI            N/A     67  47  47 NW3       29.99F
*FILLMORE        N/A     63  44  50 CALM      29.95F

$$

CAZ053-291700-
VENTURA COUNTY MOUNTAINS


CITY           SKY/WX    TMP DP  RH WIND       PRES   REMARKS
*LOCKWOOD VLY    N/A     52  28  40 MISG        N/A
*ROSE VALLEY     N/A     50  41  71 MISG        N/A

$$

CAZ034-035-036-291700-
CENTRAL COAST AND SANTA YNEZ VALLEY


CITY           SKY/WX    TMP DP  RH WIND       PRES   REMARKS
SAN LUIS OBISP SUNNY     61  51  70 NW7       30.06R
SANTA MARIA    MOSUNNY   59  52  77 NW5       30.06R HAZE

CITY           SKY/WX    TMP DP  RH WIND       PRES   REMARKS
*CAL POLY SLO    N/A     68  43  40 E3G10       N/A
*LOMPOC        SUNNY     54  45  71 CALM      30.08R
*PISMO BEACH     N/A     56  52  87 W1        30.06R
*SANTA YNEZ    FAIR      55  45  67 CALM      30.07S

$$

CAZ037-038-051-291700-
SAN LUIS OBISPO COUNTY INTERIOR AND CUYAMA VALLEY


CITY           SKY/WX    TMP DP  RH WIND       PRES   REMARKS
*CUYAMA          N/A     58  44  58 CALM      30.07S
PASO ROBLES    SUNNY     55  44  66 CALM      30.11F

$$

CAZ032-033-061-291700-
SOUTHERN DESERTS


CITY           SKY/WX    TMP DP  RH WIND       PRES   REMARKS
BLYTHE         PTSUNNY   76  33  21 SW3       30.00R
IMPERIAL       PTSUNNY   77  32  19 CALM      29.96R
PALM SPRINGS   MOSUNNY   74  38  27 CALM      30.00R
THERMAL        MOSUNNY   78  39  24 NW6       29.95R

$$

ELSEWHERE ACROSS THE WESTERN UNITED STATES AND MEXICO


CITY           SKY/WX    TMP DP  RH WIND       PRES   REMARKS
DENVER, CO     SUNNY     50  20  30 NE18      30.33R
GRAND CANYON,  SUNNY     62  23  22 CALM      30.32R
HONOLULU, HI   CLOUDY    70  70 100 CALM      30.12R
KAHULUI, MAUI  PTCLDY    68  64  88 CALM      30.13R
LAKE TAHOE, CA SUNNY     42  26  53 CALM      30.29F
LAS VEGAS, NV  PTSUNNY   72  23  16 S10       30.08R
MAMMOTH LAKES, FAIR      50  18  27 CALM      30.34
MEXICO CITY, M MOSUNNY   61  46  59 SE12      30.45F
PHOENIX, AZ    PTSUNNY   75  31  19 E9        30.04R
PORTLAND, OR   PTSUNNY   50  45  83 E7        30.32S
RENO, NV       MOSUNNY   46  18  32 CALM      30.27F
SALT LAKE CITY SUNNY     49  24  37 SE9       30.33S
SAN DIEGO, CA  PTSUNNY   64  56  75 CALM      30.06S
SAN FRANCISCO, MOSUNNY   57  51  80 CALM      30.12S
SAN JOSE, CA   MOSUNNY   56  45  66 CALM      30.12S
SEATTLE, WA    CLOUDY    50  43  77 S9        30.27S
TIJUANA, MEX   PTSUNNY   64  55  72 CALM      30.07F

$$

STATION/POSITION TIME  TEMP    WIND        PRES    VSBY  WAVE
                       AIR SEA DIR/SP/G                  HT/PER
                 (UTC) (F)     (DEG/KT/KT) (MB)    (MI)  (FT/S)
POINT ARGUELLO B NOT AVBL
WEST SANTA BARBA 1600   59 59  360/  6/  6 1017.2R        10/11
POINT CONCEPTION NOT AVBL
EAST SANTA BARBA NOT AVBL
SANTA MONICA BAY 1600   58 63  150/  4/  6 1017.9R         4/17


USA.gov is the U.S. government's official web portal to all federal, state and local government web resources and services.